Weather History for KWLD - September, 2013

Change the Weather History Date:

Wednesday, September 4, 2013

  Actual Average Record
Temperature  
Mean Temperature 74 °F -  
Max Temperature 91 °F 87 °F 102 °F (1998)
Min Temperature 57 °F 64 °F 50 °F (2010)
Cooling Degree Days 8    
Growing Degree Days 24 (Base 50)    
Moisture  
Dew Point 60 °F    
Average Humidity 63    
Maximum Humidity 93    
Minimum Humidity 30    
Precipitation  
Precipitation 0.00 in - - ()
Sea Level Pressure  
Sea Level Pressure 30.08 in    
Wind  
Wind Speed 5 mph (ESE)    
Max Wind Speed 9 mph    
Max Gust Speed -    
Visibility 10 miles    
Events      
Averages and records for this station are not official NWS values.
T = Trace of Precipitation, MM = Missing Value Source: NWS Daily Summary

Daily Weather History Graph

Daily Weather History Graph

Search for Another Location

Airport or City:

Trip Planner

Search our weather history database for the weather conditions in past years. The results will help you decide how hot, cold, wet, or windy it might be!

Date:

Astronomy

Sep. 04, 2013 Rise Set
Actual Time 7:01 AM CDT 7:51 PM CDT
Civil Twilight 6:35 AM CDT 8:18 PM CDT
Nautical Twilight 6:03 AM CDT 8:49 PM CDT
Astronomical Twilight 5:31 AM CDT 9:21 PM CDT
Moon 6:14 AM CDT (9/4) 7:13 PM CDT (9/4)
Length of Visible Light 13h 43m
Length of Day
12h 50m
Waning Crescent, 1% of the Moon is Illuminated
Sep 4
Waning Crescent
Sep 5
New
Sep 12
First Quarter
Sep 19
Full
Sep 26
Last Quarter

Hourly Weather History & Observations

Time (CDT) Temp. Heat Index Dew Point Humidity Pressure Visibility Wind Dir Wind Speed Gust Speed Precip Events Conditions
12:54 AM 66.9 °F - 60.1 °F 79% 30.04 in 10.0 mi East 5.8 mph - N/A   Clear
1:54 AM 66.0 °F - 60.1 °F 81% 30.04 in 10.0 mi East 5.8 mph - N/A   Clear
2:54 AM 64.0 °F - 59.0 °F 84% 30.06 in 10.0 mi East 4.6 mph - N/A   Clear
3:54 AM 63.0 °F - 59.0 °F 87% 30.06 in 10.0 mi East 5.8 mph - N/A   Clear
4:54 AM 63.0 °F - 59.0 °F 87% 30.06 in 10.0 mi Calm Calm - N/A   Clear
5:54 AM 57.0 °F - 55.0 °F 93% 30.08 in 10.0 mi NNW 3.5 mph - N/A   Clear
6:54 AM 57.9 °F - 55.0 °F 90% 30.10 in 10.0 mi Calm Calm - N/A   Clear
7:54 AM 61.0 °F - 57.9 °F 90% 30.12 in 10.0 mi Calm Calm - N/A   Clear
8:54 AM 68.0 °F - 61.0 °F 78% 30.13 in 10.0 mi East 3.5 mph - N/A   Clear
9:54 AM 75.9 °F - 64.0 °F 67% 30.14 in 10.0 mi ESE 4.6 mph - N/A   Clear
10:54 AM 81.0 °F 82.2 °F 63.0 °F 54% 30.14 in 10.0 mi NE 3.5 mph - N/A   Clear
11:54 AM 84.9 °F 84.8 °F 60.1 °F 43% 30.12 in 10.0 mi Variable 4.6 mph - N/A   Clear
12:54 PM 88.0 °F 87.1 °F 59.0 °F 37% 30.11 in 10.0 mi SE 6.9 mph - N/A   Clear
1:54 PM 89.1 °F 88.0 °F 57.9 °F 35% 30.10 in 10.0 mi East 8.1 mph - N/A   Clear
2:54 PM 90.0 °F 87.9 °F 55.0 °F 30% 30.09 in 10.0 mi Variable 4.6 mph - N/A   Clear
3:54 PM 90.0 °F 88.8 °F 57.9 °F 34% 30.07 in 10.0 mi Variable 5.8 mph - N/A   Clear
4:54 PM 90.0 °F 90.0 °F 61.0 °F 38% 30.05 in 10.0 mi SSE 8.1 mph - N/A   Clear
5:54 PM 89.1 °F 88.8 °F 60.1 °F 38% 30.05 in 10.0 mi SE 9.2 mph - N/A   Clear
6:54 PM 84.9 °F 85.4 °F 62.1 °F 46% 30.05 in 10.0 mi SE 4.6 mph - N/A   Clear
7:54 PM 82.9 °F 83.3 °F 61.0 °F 47% 30.05 in 10.0 mi ESE 4.6 mph - N/A   Clear
8:54 PM 78.1 °F - 63.0 °F 60% 30.06 in 10.0 mi East 5.8 mph - N/A   Clear
9:54 PM 77.0 °F - 64.9 °F 66% 30.08 in 10.0 mi ESE 6.9 mph - N/A   Clear
10:54 PM 75.0 °F - 64.0 °F 69% 30.09 in 10.0 mi East 6.9 mph - N/A   Clear
11:54 PM 73.9 °F - 64.0 °F 71% 30.10 in 10.0 mi East 4.6 mph - N/A   Clear